�������r�C�����j�^�v���󋵏��
Date,Time,5�C6���@���p�r�C��,����,����(m/s)
2021/12/09,00:00,4.0,�k�k��,10.0
2021/12/09,00:10,3.9,�k�k��,9.0
2021/12/09,00:20,4.0,�k�k��,10.5
2021/12/09,00:30,4.0,�k�k��,9.8
2021/12/09,00:40,3.9,�k�k��,9.5
2021/12/09,00:50,4.1,�k�k��,9.5
2021/12/09,01:00,4.0,�k�k��,8.5
2021/12/09,01:10,4.0,�k�k��,9.0
2021/12/09,01:20,4.0,�k�k��,9.9
2021/12/09,01:30,3.9,�k�k��,8.6
2021/12/09,01:40,4.0,�k�k��,9.2
2021/12/09,01:50,3.9,�k�k��,8.6
2021/12/09,02:00,4.1,�k�k��,8.9
2021/12/09,02:10,3.8,�k�k��,10.0
2021/12/09,02:20,3.9,�k�k��,9.5
2021/12/09,02:30,4.0,�k�k��,8.1
2021/12/09,02:40,4.0,�k�k��,8.7
2021/12/09,02:50,3.8,�k�k��,8.9
2021/12/09,03:00,4.1,�k�k��,9.0
2021/12/09,03:10,4.0,�k�k��,8.6
2021/12/09,03:20,4.0,�k�k��,9.2
2021/12/09,03:30,4.0,�k�k��,9.7
2021/12/09,03:40,4.0,�k�k��,8.4
2021/12/09,03:50,4.0,�k�k��,7.8
2021/12/09,04:00,4.0,�k�k��,8.4
2021/12/09,04:10,3.9,�k�k��,8.0
2021/12/09,04:20,3.9,�k�k��,9.2
2021/12/09,04:30,4.0,�k�k��,8.7
2021/12/09,04:40,4.1,�k�k��,9.4
2021/12/09,04:50,4.0,�k�k��,7.6
2021/12/09,05:00,3.9,�k�k��,8.3
2021/12/09,05:10,4.0,�k�k��,9.3
2021/12/09,05:20,3.9,�k�k��,8.5
2021/12/09,05:30,4.0,�k�k��,7.8
2021/12/09,05:40,3.8,�k�k��,8.6
2021/12/09,05:50,3.8,�k�k��,9.5
2021/12/09,06:00,4.1,�k�k��,8.6
2021/12/09,06:10,4.2,�k�k��,9.9
2021/12/09,06:20,3.8,�k�k��,8.0
2021/12/09,06:30,4.0,�k�k��,8.2
2021/12/09,06:40,3.9,�k�k��,8.7
2021/12/09,06:50,4.2,�k�k��,8.4
2021/12/09,07:00,4.0,�k�k��,8.7
2021/12/09,07:10,3.9,�k�k��,9.1
2021/12/09,07:20,3.8,�k�k��,8.4
2021/12/09,07:30,3.9,�k�k��,8.7
2021/12/09,07:40,4.0,�k�k��,7.9
2021/12/09,07:50,4.1,�k�k��,7.6
2021/12/09,08:00,3.8,�k�k��,8.6
2021/12/09,08:10,3.9,�k�k��,7.8
2021/12/09,08:20,3.8,�k�k��,7.2
2021/12/09,08:30,3.9,�k�k��,7.5
2021/12/09,08:40,3.9,�k�k��,8.6
2021/12/09,08:50,4.0,�k�k��,7.7
2021/12/09,09:00,3.9,�k�k��,7.5
2021/12/09,09:10,4.0,�k�k��,7.5
2021/12/09,09:20,3.9,�k�k��,7.9
2021/12/09,09:30,4.0,�k�k��,7.8
2021/12/09,09:40,3.8,�k�k��,6.6
2021/12/09,09:50,4.0,�k�k��,6.9
2021/12/09,10:00,4.0,�k�k��,7.7
2021/12/09,10:10,4.0,�k,7.2
2021/12/09,10:20,4.2,�k�k��,7.3
2021/12/09,10:30,4.1,�k�k��,8.5
2021/12/09,10:40,4.0,�k,7.5
2021/12/09,10:50,4.1,�k,8.5
2021/12/09,11:00,4.0,�k,8.1
2021/12/09,11:10,3.9,�k,8.3
2021/12/09,11:20,4.1,�k,9.3
2021/12/09,11:30,3.9,�k,7.8
2021/12/09,11:40,3.9,�k,7.2
2021/12/09,11:50,3.9,�k,8.7
2021/12/09,12:00,4.0,�k,8.3
2021/12/09,12:10,4.0,�k,8.9
2021/12/09,12:20,4.1,�k�k��,9.5
2021/12/09,12:30,4.1,�k,9.3
2021/12/09,12:40,3.9,�k,8.6
2021/12/09,12:50,4.0,�k,9.1
2021/12/09,13:00,4.0,�k,7.0
2021/12/09,13:10,4.1,�k,8.2
2021/12/09,13:20,4.0,�k�k��,8.2
2021/12/09,13:30,3.9,�k,6.9
2021/12/09,13:40,3.9,�k,8.2
2021/12/09,13:50,4.0,�k,8.3
2021/12/09,14:00,4.0,�k,10.7
2021/12/09,14:10,4.0,�k,8.8
2021/12/09,14:20,3.8,�k,8.0
2021/12/09,14:30,3.9,�k,7.3
2021/12/09,14:40,3.9,�k,6.1
2021/12/09,14:50,3.9,�k,6.4
2021/12/09,15:00,3.9,�k�k��,7.7
2021/12/09,15:10,3.9,�k�k��,9.9
2021/12/09,15:20,4.1,�k�k��,9.0
2021/12/09,15:30,4.0,�k�k��,9.4
2021/12/09,15:40,4.0,�k�k��,7.8
2021/12/09,15:50,4.0,�k�k��,8.7
2021/12/09,16:00,4.2,�k�k��,8.7
2021/12/09,16:10,3.8,�k,7.8
2021/12/09,16:20,3.8,�k,7.4
2021/12/09,16:30,3.7,�k�k��,8.1
2021/12/09,16:40,3.9,�k,7.5
2021/12/09,16:50,3.9,�k�k��,8.1
2021/12/09,17:00,3.9,�k�k��,9.3
2021/12/09,17:10,3.8,�k�k��,9.1
2021/12/09,17:20,4.1,�k�k��,9.0
2021/12/09,17:30,3.8,�k�k��,10.2
2021/12/09,17:40,3.9,�k�k��,8.2
2021/12/09,17:50,3.9,�k�k��,9.2
2021/12/09,18:00,4.0,�k�k��,8.1
2021/12/09,18:10,3.9,�k�k��,8.1
2021/12/09,18:20,4.1,�k�k��,8.8
2021/12/09,18:30,3.9,�k�k��,9.0
2021/12/09,18:40,4.0,�k�k��,9.2
2021/12/09,18:50,4.0,�k�k��,8.3
2021/12/09,19:00,3.8,�k�k��,8.7
2021/12/09,19:10,3.8,�k�k��,9.2
2021/12/09,19:20,4.0,�k�k��,9.0
2021/12/09,19:30,4.0,�k�k��,8.0
2021/12/09,19:40,4.0,�k�k��,8.2
2021/12/09,19:50,3.8,�k�k��,7.4
2021/12/09,20:00,4.0,�k,6.2
2021/12/09,20:10,3.8,�k,6.1
2021/12/09,20:20,3.9,�k,5.0
2021/12/09,20:30,4.0,�k,4.2
2021/12/09,20:40,3.9,�k�k��,3.8
2021/12/09,20:50,3.9,�k�k��,5.5
2021/12/09,21:00,4.1,�k,4.2
2021/12/09,21:10,3.8,�k,5.8
2021/12/09,21:20,3.9,�k�k��,6.0
2021/12/09,21:30,3.9,�k�k��,5.7
2021/12/09,21:40,3.9,�k�k��,5.7
2021/12/09,21:50,4.0,�k,5.3
2021/12/09,22:00,3.9,�k,5.0
2021/12/09,22:10,4.0,�k�k��,5.4
2021/12/09,22:20,3.8,�k�k��,6.0
2021/12/09,22:30,4.0,�k�k��,5.7
2021/12/09,22:40,4.0,�k�k��,5.5
2021/12/09,22:50,3.9,�k�k��,5.8
2021/12/09,23:00,4.0,�k�k��,6.0
2021/12/09,23:10,3.9,�k�k��,5.8
2021/12/09,23:20,3.8,�k�k��,6.3
2021/12/09,23:30,4.0,�k�k��,5.9
2021/12/09,23:40,4.1,�k�k��,6.3
2021/12/09,23:50,4.0,�k�k��,5.7
